Погода в Свиягине

Россия / Приморский край     44°49′00″N   133°04′35″E
темп.,
°C
ветер,
м/с
пор.,
м/с
влажн.,
%
обл.,
%
осадки,
мм/ч
давл.,
гПа
погр.,
м
27 сентября, пн
пн2701:00+15ююв2295100 0.1 102033
04:00+15юв2395100 0.1 101959
07:00+15юв2294100 0.0 101834
10:00+17ююз2487100 0.0 1018212
13:00+21ююз5762100 0.0 10171214
16:00+21ююз5866100 0.0 10151162
19:00+17ююз41075100 0.0 1015444
22:00+17ю4127498 0.0 1016589
28 сентября, вт
вт2801:00+16ююз41186100 0.4 1016489
04:00+15ююз41096100 5.8 1016390
07:00+15ююз389681 3.9 1016363
10:00+16ююз369384 4.1 1017394
13:00+19ю348093 0.3 1015731
16:00+19ююз2480100 0.5 1014553
19:00+17юв2288100 0.1 101315
22:00+15ю22925 0.1 101317
29 сентября, ср
ср2901:00+14ююв129277 0.0 101214
04:00+13юв2293100 0.0 101221
07:00+13юв2288100 0.0 101132
10:00+17ююв2376100 0.0 1010173
13:00+22ююз3560100 0.0 10091172
16:00+21ююз3570100 0.4 1007736
19:00+17ю248899 0.8 100661
22:00+15юз23953 0.8 100754
30 сентября, чт
чт3001:00+14ююз119537 0.0 100512
04:00+14сз51192100 0.0 1006595
07:00+12сз5118876 0.4 1008583
10:00+13сз58660 0.4 1010741
13:00+15сз56430 0.0 10111162
16:00+15ссз34370 0.0 10101291
19:00+11юв22520 0.0 101014
22:00+10юв22556 0.0 101112
1 октября, пт
пт101:00+9з115432 0.0 101110
04:00+8юв116562 0.0 101210
07:00+9ююз016974 0.0 101311
10:00+13зсз12605 0.0 1014538
13:00+15зсз33443 0.0 10131594
16:00+15сз23410 0.0 10121363
19:00+10вюв22564 0.0 101310
22:00+9юв22600 0.0 101314